sat.trackr.live / text

‹ back to catalog

STARLINK-4508

NORAD 53559 · 2022-101AJ

PAYLOAD ACTIVE UNKNOWN

§ Identity

Operator
Country
US
Launch date
2022-08-19
Launch site
AFETR
Launch vehicle
Mass (kg)
RCS (m²)

Purposes: comms

External: N2YO · Heavens-Above · Gunter

§ Orbital elements

Epoch: 2026-06-08T23:19:57.660096Z

Period
87.55 min
Inclination
53.2045°
Eccentricity
0.0007571
Mean motion
16.44753530 rev/d
Perigee alt
148.2 km
Apogee alt
158.1 km
Semi-major
6,531.3 km
B*
2.8374e-4
RAAN
348.2333°
Arg perigee
284.4845°
Mean anomaly
75.5365°
Rev number
21,045

§ Raw data

STARLINK-45081 53559U 22101AJ  26159.97219514  .09717160  12511-4  28374-3 0  99962 53559  53.2045 348.2333 0007571 284.4845  75.5365 16.44753530210450

JSON: /api/v1/satellites/53559 · /tle

For live sub-satellite position, see the globe view (requires WebGL).

§ Visibility from observer

Set your observer location to see the next 7 days of passes ≥ 10°. The values pass through the URL so the page stays shareable.

No JS? Fill the form by hand. The geolocation button needs JavaScript.